Temp
-9 -9 -9 -9 -9 -10 -12 -15 -15 -15 -15 -15 -15 -15 -15 -14 -14 -14 -13 -13 -13 -13 -13 -12 -10 -10 -11 -11 -12 -12 -12 -12 -11 -11 -10 -10 -10 -10 -10 -10 -10 -10 -10 -9 -9 -9 -9 -10 -10
-10 -9 -9 -9 -10 -12 -14 -14 -15 -15 -16 -16 -15 -15 -15 -14 -14 -14 -15 -14 -14 -13 -13 -13 -12 -11 -11 -13 -13 -13 -12 -12 -12 -11 -11 -11 -11 -11 -11 -10 -10 -10 -10 -10 -10 -10 -10 -10 -11
-10 -10 -9 -10 -12 -13 -14 -14 -14 -15 -15 -16 -16 -15 -14 -14 -14 -15 -14 -14 -13 -13 -13 -13 -11 -12 -12 -12 -12 -13 -12 -12 -12 -12 -12 -12 -12 -12 -11 -11 -10 -10 -10 -11 -10 -11 -11 -11 -11
-10 -10 -10 -12 -13 -13 -13 -15 -16 -16 -16 -16 -16 -15 -15 -14 -14 -14 -14 -14 -14 -13 -13 -12 -12 -12 -11 -10 -12 -11 -12 -12 -12 -12 -12 -12 -12 -12 -12 -11 -11 -11 -11 -11 -12 -11 -11 -12 -12
-10 -9 -10 -13 -13 -14 -15 -16 -16 -16 -16 -16 -15 -15 -14 -14 -14 -13 -13 -13 -13 -14 -13 -13 -13 -12 -11 -12 -12 -10 -12 -13 -13 -12 -12 -12 -13 -12 -12 -11 -11 -11 -11 -11 -12 -11 -12 -12 -12
-10 -9 -12 -13 -12 -14 -16 -16 -16 -16 -16 -16 -15 -14 -14 -14 -14 -14 -14 -14 -14 -14 -13 -13 -12 -10 -11 -12 -11 -10 -12 -12 -12 -12 -12 -12 -12 -12 -12 -12 -11 -11 -12 -12 -12 -12 -12 -13 -13
-10 -10 -13 -13 -13 -14 -16 -16 -16 -15 -15 -15 -15 -14 -14 -14 -14 -14 -14 -12 -13 -11 -13 -13 -13 -13 -12 -12 -11 -11 -11 -12 -12 -12 -12 -12 -12 -12 -12 -12 -12 -12 -12 -12 -12 -12 -12 -12 -14
-10 -11 -13 -13 -13 -15 -16 -15 -14 -15 -15 -15 -14 -14 -15 -15 -14 -14 -13 -14 -13 -13 -14 -13 -13 -13 -12 -12 -11 -11 -11 -11 -12 -12 -12 -11 -12 -11 -11 -12 -12 -12 -12 -13 -12 -12 -12 -12 -14
-11 -12 -13 -14 -15 -15 -16 -15 -14 -14 -14 -14 -14 -14 -15 -14 -14 -14 -14 -14 -13 -13 -13 -14 -14 -12 -12 -12 -11 -11 -12 -12 -12 -12 -11 -12 -12 -12 -12 -12 -12 -12 -12 -13 -13 -13 -13 -13 -15
-11 -12 -13 -14 -14 -15 -16 -15 -15 -14 -14 -14 -14 -14 -13 -13 -13 -13 -14 -13 -13 -13 -13 -14 -13 -13 -12 -12 -12 -13 -12 -12 -12 -12 -13 -12 -12 -12 -12 -12 -12 -12 -12 -13 -12 -13 -14 -14 -15
-12 -12 -13 -14 -14 -17 -16 -15 -15 -14 -13 -14 -13 -13 -13 -13 -14 -14 -14 -14 -14 -13 -13 -13 -13 -14 -14 -13 -12 -13 -13 -12 -12 -12 -12 -12 -12 -12 -12 -12 -12 -12 -12 -12 -12 -14 -15 -15 -14
-11 -12 -12 -14 -15 -14 -14 -15 -15 -15 -14 -14 -13 -13 -13 -13 -13 -14 -14 -14 -14 -14 -13 -13 -13 -14 -13 -13 -13 -12 -12 -12 -12 -12 -12 -12 -12 -12 -12 -12 -12 -12 -13 -12 -13 -15 -15 -15 -14
-11 -12 -12 -12 -13 -14 -15 -15 -14 -15 -14 -13 -13 -13 -13 -12 -13 -14 -14 -14 -13 -13 -13 -13 -13 -13 -13 -12 -12 -12 -12 -13 -12 -12 -13 -12 -12 -12 -13 -12 -13 -13 -13 -13 -14 -16 -16 -15 -14
-12 -11 -12 -13 -14 -14 -15 -14 -14 -14 -13 -13 -13 -13 -13 -12 -13 -13 -13 -13 -13 -13 -12 -12 -12 -13 -12 -12 -13 -13 -13 -12 -12 -12 -12 -12 -13 -13 -13 -13 -13 -14 -14 -14 -16 -16 -16 -15 -15
-12 -12 -12 -14 -14 -15 -15 -14 -15 -14 -14 -14 -13 -13 -13 -13 -14 -15 -14 -14 -13 -12 -12 -12 -12 -13 -12 -13 -13 -13 -12 -12 -12 -13 -12 -12 -12 -13 -13 -14 -14 -15 -15 -16 -16 -16 -16 -15 -15
-12 -13 -13 -15 -15 -15 -14 -15 -15 -15 -15 -14 -14 -13 -14 -14 -14 -15 -15 -15 -14 -14 -12 -12 -12 -12 -12 -12 -13 -13 -13 -12 -12 -12 -13 -13 -13 -13 -14 -15 -15 -15 -16 -16 -16 -16 -16 -15 -15
-12 -12 -13 -15 -16 -14 -14 -15 -16 -15 -15 -15 -14 -14 -14 -14 -15 -15 -15 -14 -14 -14 -14 -12 -12 -12 -13 -13 -13 -13 -12 -12 -13 -12 -13 -13 -13 -14 -15 -16 -16 -16 -17 -16 -16 -17 -16 -15 -15
-13 -12 -13 -13 -14 -15 -15 -15 -15 -15 -15 -15 -14 -14 -14 -14 -14 -15 -15 -14 -14 -14 -14 -14 -13 -13 -14 -14 -13 -13 -13 -12 -12 -13 -13 -14 -14 -15 -16 -16 -16 -16 -16 -16 -16 -15 -16 -15 -15
-13 -12 -13 -12 -15 -16 -16 -15 -15 -15 -15 -15 -15 -14 -14 -14 -14 -15 -14 -14 -14 -14 -15 -14 -14 -14 -15 -14 -13 -13 -14 -14 -13 -14 -14 -14 -15 -16 -15 -16 -16 -16 -16 -16 -16 -15 -15 -15 -15
-13 -13 -13 -12 -16 -16 -16 -16 -15 -15 -15 -15 -15 -15 -14 -14 -14 -14 -14 -14 -14 -14 -15 -15 -15 -15 -15 -14 -14 -14 -15 -15 -15 -15 -15 -15 -15 -15 -16 -16 -16 -16 -16 -16 -16 -15 -15 -15 -15
-12 -13 -13 -13 -14 -15 -16 -14 -15 -15 -15 -14 -15 -15 -15 -14 -14 -14 -15 -14 -14 -14 -15 -15 -15 -15 -15 -14 -14 -14 -14 -14 -14 -15 -15 -14 -15 -15 -16 -16 -16 -16 -16 -16 -16 -15 -15 -15 -15
-12 -13 -13 -13 -13 -14 -16 -15 -15 -15 -14 -14 -15 -15 -15 -14 -14 -14 -15 -15 -15 -15 -15 -14 -15 -15 -14 -14 -14 -14 -14 -15 -14 -14 -14 -14 -15 -15 -15 -16 -16 -16 -16 -16 -16 -15 -15 -15 -15
-13 -13 -13 -14 -13 -13 -14 -15 -15 -16 -14 -14 -14 -15 -15 -15 -15 -14 -15 -15 -15 -15 -15 -15 -15 -15 -15 -15 -15 -15 -15 -15 -15 -15 -14 -14 -14 -15 -15 -16 -16 -16 -15 -15 -15 -16 -16 -15 -15
-13 -13 -13 -14 -13 -13 -15 -15 -14 -15 -15 -14 -14 -14 -15 -15 -15 -15 -15 -15 -15 -15 -15 -15 -15 -15 -15 -15 -15 -15 -15 -15 -16 -16 -16 -16 -15 -15 -16 -16 -16 -16 -16 -16 -16 -16 -16 -16 -16
-13 -13 -13 -13 -13 -13 -15 -13 -14 -14 -14 -14 -14 -14 -14 -14 -15 -15 -15 -15 -15 -14 -14 -15 -15 -15 -15 -15 -15 -14 -15 -15 -15 -15 -15 -16 -16 -16 -16 -16 -16 -16 -15 -16 -16 -16 -16 -16 -16
-14 -14 -14 -13 -13 -14 -14 -13 -14 -15 -14 -14 -14 -13 -13 -14 -14 -15 -15 -15 -15 -15 -15 -15 -15 -15 -15 -15 -15 -15 -15 -15 -15 -15 -15 -15 -15 -15 -16 -16 -16 -16 -15 -15 -16 -16 -16 -16 -16
-14 -14 -14 -14 -14 -13 -14 -14 -14 -14 -14 -14 -14 -14 -13 -13 -14 -14 -14 -15 -15 -15 -15 -15 -15 -15 -15 -15 -15 -15 -15 -16 -15 -16 -15 -15 -16 -16 -16 -16 -16 -16 -15 -15 -16 -16 -16 -16 -16
-15 -15 -15 -14 -14 -13 -12 -14 -14 -15 -14 -14 -13 -14 -13 -14 -14 -14 -14 -14 -14 -15 -15 -15 -16 -15 -15 -15 -15 -16 -16 -15 -15 -16 -16 -16 -16 -16 -16 -16 -16 -16 -16 -16 -17 -16 -16 -16 -16
-15 -15 -14 -14 -14 -13 -12 -13 -14 -15 -15 -14 -14 -14 -14 -14 -15 -15 -14 -14 -14 -15 -15 -15 -16 -15 -15 -15 -15 -16 -15 -16 -16 -15 -15 -15 -15 -16 -16 -16 -16 -16 -17 -16 -16 -16 -16 -16 -16
-15 -15 -16 -15 -14 -14 -13 -12 -14 -14 -15 -15 -15 -15 -15 -15 -15 -14 -14 -14 -14 -14 -15 -15 -15 -15 -16 -15 -15 -15 -14 -15 -15 -15 -15 -14 -13 -16 -16 -16 -17 -17 -17 -17 -16 -16 -16 -16 -17
Height
5824 5820 5815 5812 5810 5801 5797 5797 5795 5792 5792 5791 5790 5791 5791 5792 5797 5794 5794 5796 5798 5803 5804 5802 5792 5785 5792 5804 5813 5818 5822 5827 5832 5833 5835 5835 5837 5838 5840 5840 5841 5841 5842 5843 5845 5846 5847 5847 5846
5820 5816 5812 5806 5801 5796 5795 5795 5793 5790 5790 5788 5788 5788 5788 5788 5788 5790 5790 5791 5794 5796 5797 5801 5794 5795 5796 5799 5808 5812 5817 5823 5826 5828 5829 5832 5834 5835 5836 5837 5838 5838 5840 5841 5841 5843 5844 5844 5843
5817 5813 5807 5799 5795 5793 5792 5790 5789 5787 5786 5787 5785 5785 5786 5786 5785 5787 5785 5787 5788 5790 5794 5795 5791 5798 5795 5802 5805 5810 5814 5816 5820 5823 5826 5828 5831 5832 5833 5834 5835 5835 5836 5837 5838 5841 5841 5841 5841
5812 5809 5801 5795 5792 5789 5787 5787 5787 5787 5786 5786 5785 5783 5784 5784 5784 5785 5784 5785 5786 5788 5791 5795 5791 5790 5797 5802 5801 5797 5805 5810 5814 5818 5821 5823 5826 5827 5829 5832 5832 5831 5832 5833 5835 5837 5839 5838 5838
5808 5803 5795 5792 5790 5787 5785 5784 5785 5787 5785 5782 5781 5779 5777 5779 5781 5780 5779 5780 5781 5782 5785 5786 5786 5787 5785 5791 5788 5782 5798 5802 5807 5812 5815 5818 5820 5823 5825 5826 5829 5829 5829 5830 5831 5833 5835 5834 5834
5804 5798 5792 5790 5788 5784 5781 5782 5784 5784 5782 5777 5775 5776 5776 5775 5773 5775 5774 5775 5777 5775 5777 5783 5782 5780 5783 5786 5785 5779 5791 5799 5804 5806 5810 5814 5816 5819 5821 5822 5823 5825 5826 5826 5827 5828 5832 5832 5830
5800 5793 5791 5789 5784 5781 5779 5779 5782 5782 5779 5774 5771 5771 5770 5771 5769 5770 5768 5768 5770 5766 5768 5778 5780 5780 5780 5779 5780 5778 5783 5794 5801 5804 5807 5809 5811 5814 5815 5816 5819 5820 5821 5822 5823 5824 5826 5829 5826
5795 5791 5789 5785 5781 5779 5776 5776 5776 5776 5774 5771 5768 5766 5766 5767 5765 5768 5766 5768 5764 5762 5762 5770 5774 5776 5778 5780 5779 5783 5787 5789 5796 5801 5804 5805 5807 5809 5810 5812 5813 5814 5815 5818 5819 5820 5821 5824 5825
5791 5788 5785 5781 5778 5775 5774 5772 5774 5773 5771 5768 5767 5763 5761 5761 5758 5762 5762 5762 5766 5767 5766 5769 5771 5773 5774 5777 5778 5777 5782 5787 5792 5797 5800 5802 5802 5804 5805 5807 5809 5809 5811 5813 5815 5815 5815 5819 5822
5788 5786 5782 5779 5775 5773 5771 5770 5771 5771 5768 5766 5764 5764 5759 5757 5756 5756 5758 5761 5763 5764 5765 5765 5769 5769 5771 5766 5773 5771 5779 5784 5787 5792 5794 5796 5797 5798 5800 5803 5803 5801 5804 5806 5808 5810 5812 5814 5818
5786 5784 5778 5776 5772 5772 5770 5770 5768 5767 5765 5765 5763 5759 5756 5754 5753 5754 5756 5754 5758 5762 5763 5765 5767 5767 5768 5768 5768 5773 5778 5781 5781 5786 5788 5790 5793 5793 5797 5797 5797 5798 5800 5802 5804 5806 5808 5811 5815
5785 5781 5775 5773 5770 5769 5769 5770 5769 5765 5764 5764 5763 5759 5756 5754 5750 5751 5751 5753 5755 5757 5759 5759 5762 5764 5767 5768 5767 5769 5772 5775 5777 5781 5784 5786 5788 5792 5792 5792 5792 5794 5797 5798 5799 5802 5805 5808 5811
5779 5776 5772 5769 5768 5769 5769 5769 5767 5763 5762 5760 5759 5757 5753 5749 5747 5746 5748 5748 5750 5751 5754 5755 5757 5760 5762 5764 5767 5766 5769 5772 5775 5777 5779 5781 5784 5787 5788 5787 5789 5792 5793 5793 5794 5797 5802 5805 5808
5777 5772 5768 5768 5768 5768 5768 5767 5766 5764 5764 5761 5759 5757 5753 5752 5747 5746 5748 5747 5745 5746 5748 5750 5754 5756 5756 5758 5762 5765 5766 5768 5769 5771 5776 5778 5781 5782 5783 5783 5785 5788 5789 5789 5791 5796 5800 5803 5806
5775 5770 5765 5766 5766 5765 5764 5764 5763 5762 5760 5759 5756 5755 5752 5749 5745 5743 5745 5745 5742 5740 5743 5745 5749 5751 5751 5755 5756 5759 5760 5763 5766 5767 5770 5773 5774 5776 5777 5779 5781 5783 5784 5785 5789 5792 5797 5800 5803
5772 5767 5764 5763 5762 5762 5763 5759 5759 5762 5760 5756 5756 5753 5751 5748 5747 5746 5746 5744 5742 5739 5738 5738 5740 5743 5747 5749 5752 5753 5756 5759 5762 5763 5763 5766 5768 5769 5771 5774 5777 5779 5781 5785 5788 5790 5794 5798 5799
5768 5766 5762 5760 5759 5758 5759 5756 5756 5759 5759 5755 5754 5752 5749 5748 5747 5749 5748 5745 5742 5740 5737 5735 5735 5739 5742 5743 5745 5748 5750 5753 5756 5758 5760 5762 5763 5764 5766 5770 5774 5776 5780 5784 5785 5789 5793 5794 5795
5764 5762 5760 5757 5757 5754 5754 5753 5754 5755 5756 5754 5754 5752 5750 5748 5746 5749 5748 5746 5743 5741 5739 5736 5734 5735 5737 5738 5740 5741 5744 5746 5751 5752 5754 5756 5757 5759 5765 5769 5772 5774 5778 5781 5784 5787 5789 5790 5791
5759 5757 5759 5754 5749 5749 5749 5751 5750 5751 5752 5754 5753 5752 5750 5745 5744 5748 5748 5746 5744 5742 5741 5739 5735 5736 5735 5737 5734 5735 5738 5740 5741 5745 5747 5750 5753 5757 5762 5765 5769 5771 5775 5777 5781 5783 5785 5787 5787
5756 5755 5755 5749 5748 5747 5747 5747 5747 5748 5749 5752 5751 5751 5749 5745 5743 5744 5746 5746 5745 5744 5742 5740 5738 5737 5738 5737 5737 5737 5739 5740 5743 5746 5749 5755 5755 5758 5762 5765 5765 5769 5773 5775 5778 5779 5781 5780 5781
5752 5751 5751 5747 5745 5744 5742 5744 5743 5743 5746 5749 5747 5748 5747 5744 5743 5742 5744 5744 5744 5744 5744 5743 5742 5742 5740 5740 5741 5742 5743 5745 5749 5752 5755 5757 5754 5757 5761 5763 5765 5768 5770 5771 5772 5774 5775 5774 5775
5746 5747 5745 5743 5741 5740 5741 5739 5741 5740 5741 5744 5745 5746 5744 5743 5742 5742 5742 5743 5742 5742 5742 5742 5742 5742 5741 5741 5742 5743 5743 5745 5749 5749 5750 5751 5755 5758 5759 5760 5763 5764 5767 5768 5769 5769 5769 5769 5768
5743 5741 5740 5738 5738 5738 5739 5735 5739 5735 5739 5739 5741 5742 5742 5741 5741 5740 5740 5741 5742 5742 5741 5741 5741 5740 5740 5741 5742 5742 5743 5745 5748 5749 5751 5752 5755 5758 5755 5757 5760 5761 5762 5763 5763 5763 5763 5761 5759
5736 5735 5735 5735 5734 5735 5736 5731 5732 5731 5735 5738 5738 5740 5742 5741 5740 5738 5738 5739 5740 5740 5739 5739 5739 5740 5740 5741 5741 5741 5742 5743 5744 5745 5748 5751 5752 5753 5753 5755 5756 5756 5755 5756 5756 5757 5756 5755 5752
5728 5728 5729 5729 5729 5733 5731 5729 5727 5727 5730 5734 5736 5735 5738 5739 5738 5736 5737 5738 5738 5738 5738 5738 5738 5738 5739 5739 5739 5740 5740 5741 5743 5744 5744 5744 5746 5748 5749 5749 5750 5751 5750 5749 5749 5749 5748 5746 5744
5720 5722 5723 5723 5725 5729 5724 5727 5725 5726 5727 5729 5730 5730 5733 5736 5736 5736 5735 5736 5737 5736 5736 5736 5737 5737 5737 5738 5737 5738 5738 5738 5739 5740 5740 5740 5740 5741 5742 5744 5745 5743 5742 5744 5743 5742 5739 5738 5737
5714 5711 5721 5717 5718 5719 5720 5722 5723 5721 5723 5724 5726 5727 5729 5731 5733 5735 5734 5734 5734 5734 5732 5732 5734 5734 5734 5735 5735 5735 5735 5736 5736 5736 5737 5735 5736 5735 5736 5738 5739 5738 5737 5735 5733 5730 5731 5729 5727
5702 5709 5709 5707 5710 5712 5714 5716 5718 5717 5718 5719 5720 5722 5724 5726 5728 5730 5731 5731 5730 5730 5730 5729 5729 5730 5730 5730 5731 5731 5731 5731 5731 5730 5732 5730 5728 5729 5730 5731 5733 5730 5729 5727 5724 5724 5722 5720 5718
5696 5697 5700 5702 5701 5706 5707 5710 5713 5714 5714 5715 5716 5717 5718 5720 5721 5723 5725 5727 5726 5725 5726 5726 5725 5725 5725 5725 5725 5723 5723 5722 5723 5722 5721 5723 5720 5720 5722 5722 5723 5722 5721 5719 5717 5715 5713 5710 5708
5688 5689 5694 5693 5697 5700 5700 5705 5707 5709 5709 5710 5711 5714 5715 5717 5717 5718 5718 5721 5721 5720 5721 5721 5721 5719 5719 5718 5719 5715 5713 5714 5713 5715 5713 5709 5690 5710 5714 5715 5714 5714 5713 5711 5708 5706 5704 5700 5697
Wind_Speed
38 40 41 41 40 31 20 8 7 4 14 9 17 20 18 16 29 26 39 40 38 40 40 45 33 23 45 45 34 34 29 28 32 29 27 26 26 23 20 20 20 20 19 18 18 17 17 17 16
37 39 39 38 28 18 8 8 7 12 16 19 23 23 21 23 24 26 32 36 40 40 44 53 56 28 23 36 39 31 31 33 32 32 29 27 26 24 22 20 19 20 22 22 21 20 17 15 15
35 38 36 28 14 11 6 10 11 15 18 25 24 28 23 25 26 26 33 33 38 40 43 43 52 50 28 25 30 33 36 37 35 32 30 28 28 25 22 20 20 21 22 22 22 21 18 16 17
30 33 30 18 12 13 9 9 13 14 25 29 33 32 27 27 25 29 34 37 33 39 37 37 48 49 33 30 33 38 44 38 36 33 30 31 29 24 18 21 21 21 21 22 22 20 21 21 18
28 31 26 15 11 6 7 14 17 21 28 32 33 29 24 22 24 27 34 32 34 39 40 38 40 28 31 30 50 39 43 41 37 35 33 27 20 19 20 21 23 23 22 22 21 20 20 20 18
27 28 20 12 11 9 6 9 21 28 30 33 27 24 26 25 31 31 33 35 40 43 46 45 30 19 25 28 25 33 43 44 40 36 32 26 23 23 23 23 25 25 24 24 22 21 21 18 18
25 26 18 13 13 7 8 16 19 18 18 28 20 16 15 16 24 28 32 34 38 15 30 38 24 21 25 31 32 27 41 47 39 35 32 26 25 25 25 27 27 27 27 26 21 21 23 20 16
24 23 17 12 13 9 18 20 19 15 19 18 16 13 15 22 26 17 13 26 15 14 15 25 20 16 16 24 27 27 26 35 37 36 27 25 24 26 26 27 27 26 27 25 21 21 21 19 13
21 22 16 11 12 14 17 23 23 12 16 19 12 8 15 18 20 18 9 10 11 10 15 19 19 20 14 20 21 24 20 24 28 27 28 26 20 26 27 24 31 35 33 27 30 23 20 19 13
19 19 16 14 15 14 21 24 20 16 23 17 8 9 12 12 7 13 9 10 11 14 19 22 20 26 22 15 17 7 10 19 26 28 29 25 27 25 20 30 33 40 33 27 30 21 19 17 13
20 22 17 15 12 17 20 17 20 22 22 18 8 13 19 14 8 13 14 15 15 13 21 23 21 23 23 20 15 8 8 23 11 24 19 32 29 32 33 32 32 40 33 30 28 21 19 15 15
16 22 16 11 11 17 8 14 17 21 22 27 11 10 14 13 8 9 8 7 9 15 20 23 23 19 18 15 17 12 14 15 16 15 17 26 30 28 33 27 24 34 31 30 25 21 18 16 14
16 21 19 12 10 8 7 6 15 17 20 9 9 11 12 14 7 9 10 12 14 12 20 23 26 21 22 22 19 16 19 18 16 21 18 19 24 27 23 19 26 30 30 26 27 27 23 16 15
19 21 15 9 9 8 6 7 10 14 19 9 13 15 10 12 4 4 6 11 14 9 17 24 28 27 25 27 24 31 23 19 25 22 24 23 27 23 22 18 24 29 28 25 24 19 15 15 16
18 17 11 4 7 10 11 9 13 19 7 21 14 14 12 9 10 9 9 9 11 7 14 22 27 30 31 28 27 23 22 26 26 26 28 26 22 22 18 15 22 24 28 25 20 18 17 17 18
16 13 9 8 11 13 13 7 13 15 18 11 13 14 7 10 13 11 10 11 12 11 4 19 24 30 33 29 26 23 24 23 23 20 17 19 23 21 14 18 22 28 26 19 19 17 18 19 18
16 15 13 12 9 12 10 8 14 12 13 12 14 8 6 10 10 9 10 10 13 15 14 3 16 23 28 30 25 26 23 19 20 20 16 21 22 20 16 20 28 24 16 15 14 15 18 17 14
17 16 16 20 14 12 6 9 15 13 4 6 7 7 3 7 9 5 6 9 10 14 14 16 15 10 17 19 23 24 20 21 23 24 22 23 26 23 26 28 24 19 15 14 17 18 17 16 15
20 16 14 16 12 15 18 13 12 13 7 2 7 9 5 5 7 3 2 4 8 10 12 12 18 16 18 10 7 13 19 24 25 26 28 25 24 30 32 24 16 17 18 17 18 19 18 17 18
21 18 20 13 15 22 13 15 17 15 12 3 3 6 8 4 3 2 3 1 4 7 11 12 12 13 11 14 14 16 14 14 14 17 21 24 23 20 18 18 19 19 20 19 18 16 18 20 21
19 17 21 13 22 23 23 18 17 19 12 7 6 3 7 2 2 2 3 2 2 5 7 10 11 11 13 12 11 11 12 12 10 8 10 13 14 15 17 17 19 19 19 18 17 18 19 22 24
18 21 20 16 21 25 23 22 18 20 15 3 4 1 5 4 3 3 3 1 2 3 4 6 7 7 9 11 12 12 12 9 8 10 12 13 16 20 19 19 19 19 18 18 18 20 21 24 27
17 25 22 19 22 20 16 26 16 23 11 7 2 7 4 6 4 2 3 5 3 1 2 0 2 3 4 6 6 6 5 6 5 5 8 12 15 19 17 18 17 20 21 21 20 22 25 27 28
26 27 25 22 22 16 11 21 14 24 18 11 3 3 8 8 4 1 0 5 5 5 4 3 2 3 4 2 3 4 3 1 4 5 9 12 13 14 17 19 21 23 23 23 22 23 26 29 32
30 29 27 25 24 11 19 20 8 21 17 15 6 3 11 5 4 4 2 6 11 10 7 5 5 7 7 7 7 7 7 5 6 9 11 13 16 17 20 22 24 26 27 25 25 23 27 28 28
30 29 29 27 24 18 28 13 11 14 14 13 14 8 7 9 7 7 5 6 9 13 10 8 8 10 11 10 12 12 12 8 9 11 17 17 21 19 19 23 26 34 23 23 27 24 23 26 28
30 35 23 29 29 30 28 23 18 15 14 18 17 12 11 11 8 9 7 8 10 10 14 12 10 11 13 13 15 13 13 15 18 20 18 17 20 19 17 16 20 21 21 25 27 21 28 30 33
35 30 31 34 32 31 28 25 24 16 16 17 17 17 19 11 10 10 11 11 13 12 14 17 15 15 16 17 16 17 19 19 21 24 23 19 21 18 16 16 24 24 24 26 25 28 31 33 34
37 37 38 37 37 31 31 25 27 19 20 17 20 20 22 16 13 15 12 11 13 18 16 17 18 19 19 21 21 24 27 29 28 29 33 28 26 22 18 20 22 26 27 29 30 32 34 34 35
40 39 38 39 35 32 32 27 27 26 24 20 22 22 17 19 19 18 19 16 14 16 17 16 18 21 22 25 28 34 29 33 29 44 28 36 28 17 17 22 27 29 30 31 32 34 36 37 38
Wind_Direction
316 314 318 324 327 321 322 314 253 235 289 255 301 289 254 248 237 252 246 259 262 254 250 244 234 210 219 219 210 218 220 232 237 239 241 246 250 256 254 259 256 251 252 252 256 258 257 261 264
316 316 321 330 327 332 311 288 277 312 325 304 293 292 279 278 244 241 257 258 260 267 264 258 238 240 201 199 206 209 219 226 232 237 240 249 256 257 254 253 253 252 253 252 255 256 252 257 262
319 321 331 330 322 315 237 279 268 303 297 305 287 282 271 279 264 248 255 264 255 258 258 258 259 258 250 210 205 209 219 223 228 233 242 252 257 258 253 252 254 252 252 253 254 254 251 255 260
327 331 333 322 305 293 269 284 339 310 299 304 307 288 279 270 278 256 257 262 260 259 259 257 258 267 261 247 207 215 215 218 225 233 241 243 243 242 250 261 257 255 254 257 255 256 257 257 257
333 336 330 303 288 272 346 345 322 294 302 306 300 281 269 276 269 266 262 267 255 255 253 257 263 263 260 248 246 203 212 214 221 230 236 242 243 246 249 254 262 268 264 261 258 260 255 252 256
337 341 324 287 285 288 330 303 283 293 306 305 307 290 269 270 281 281 266 259 261 259 256 246 247 240 244 241 239 191 205 219 225 227 232 235 238 245 251 256 258 262 262 262 258 255 250 249 249
339 341 304 285 288 290 282 274 278 298 302 306 295 298 281 285 284 273 265 264 270 203 206 226 238 235 247 241 240 190 210 220 228 232 227 231 241 248 253 256 256 260 258 253 251 253 249 238 246
341 329 292 281 292 299 325 310 300 291 289 297 304 277 276 274 270 276 276 271 208 189 212 222 243 243 244 230 230 207 210 205 223 229 237 244 249 254 257 259 255 256 256 244 247 251 247 241 208
336 313 288 283 279 296 310 300 319 318 300 313 301 289 291 295 265 256 271 297 268 254 247 243 241 244 241 235 240 210 251 231 239 237 244 246 251 256 258 264 262 254 257 247 240 240 243 246 203
329 303 278 282 276 312 302 309 314 320 314 305 296 323 322 319 251 250 237 227 256 257 248 253 252 261 228 230 243 266 231 233 244 242 242 250 247 247 275 266 266 249 240 226 235 231 230 210 191
325 305 273 261 282 288 295 320 327 321 323 291 315 320 323 309 284 253 256 252 249 256 240 247 247 267 265 258 265 250 269 234 239 234 241 244 232 260 252 280 280 266 237 233 230 215 203 201 189
313 314 286 247 266 287 327 338 336 335 327 311 311 324 323 308 310 295 288 272 257 254 239 246 246 246 248 259 271 262 273 243 230 234 257 238 244 262 265 278 284 267 247 247 223 203 197 196 196
322 316 310 301 283 274 334 329 330 353 344 343 331 334 331 335 335 320 291 300 288 261 235 235 241 234 238 239 245 260 271 242 261 260 257 244 256 267 269 264 265 260 257 233 216 203 194 197 206
306 316 313 307 262 291 312 334 326 338 328 341 336 333 319 327 339 325 296 297 295 262 225 232 238 234 231 236 231 230 239 250 268 264 254 252 264 258 254 245 251 261 246 225 190 183 201 206 208
295 315 311 260 228 260 285 346 342 347 2 344 327 335 326 10 36 42 21 357 351 284 245 232 235 227 231 236 247 243 227 236 252 251 246 254 241 258 257 247 244 237 209 184 184 195 205 208 212
294 303 300 174 227 239 277 334 343 344 324 346 340 337 1 44 44 62 76 59 51 24 193 227 224 226 231 226 229 228 224 237 237 242 227 235 243 246 227 234 236 213 186 185 195 203 203 212 217
282 287 288 232 222 241 263 305 321 327 357 355 335 343 32 56 66 91 80 71 65 62 49 85 204 213 211 219 230 234 234 225 230 224 249 242 240 211 205 217 188 172 166 189 190 197 206 218 238
267 271 275 267 240 268 289 314 309 306 341 354 339 326 32 51 59 93 79 69 66 63 58 67 81 166 200 219 226 220 226 221 223 240 249 231 213 202 186 184 171 164 172 189 196 205 217 230 249
267 275 274 262 288 293 305 300 310 310 279 347 333 315 322 46 62 88 40 60 64 79 70 69 82 80 87 101 189 217 208 226 235 238 236 216 179 173 175 167 165 189 198 212 216 218 229 245 260
264 272 274 266 244 264 273 286 291 308 286 243 210 335 312 26 51 9 325 357 97 89 86 80 87 101 107 99 94 98 114 113 132 154 157 165 163 163 175 186 189 199 210 213 221 231 247 262 277
254 264 256 263 257 256 260 266 285 289 264 261 177 339 289 4 14 296 321 4 75 105 109 101 95 101 109 112 118 125 127 125 134 137 159 177 164 175 191 206 205 204 207 220 235 250 264 277 282
243 251 250 251 261 262 262 269 264 280 278 268 213 133 265 298 312 233 247 193 145 139 136 127 118 108 108 107 110 110 116 127 161 180 194 197 200 201 205 206 207 205 215 231 248 262 274 282 282
240 246 247 246 258 276 266 263 254 255 277 253 167 220 222 292 328 283 208 197 193 24 352 270 107 130 134 106 109 123 118 133 147 179 197 201 207 214 205 208 220 227 231 243 259 268 271 285 289
239 239 246 249 257 261 269 258 207 243 266 251 264 128 231 271 288 129 279 258 263 326 310 287 290 282 276 205 186 183 172 206 212 226 231 234 226 223 219 219 229 241 250 256 263 273 278 279 282
230 236 243 245 250 251 259 259 197 225 245 268 254 246 198 198 242 292 277 271 265 280 294 271 286 299 281 266 267 260 250 282 233 233 239 235 232 234 240 243 246 249 255 260 267 276 276 277 279
238 237 241 249 250 242 246 249 182 218 250 259 257 217 191 173 229 252 263 289 277 277 273 277 284 298 299 275 265 269 251 257 248 249 234 250 242 232 244 250 253 254 258 266 270 276 263 279 285
238 237 242 249 247 246 243 244 228 227 236 255 263 250 215 204 215 228 256 262 257 268 277 272 279 287 294 281 269 262 253 246 243 244 243 234 232 234 235 248 258 271 266 267 277 298 291 285 288
234 233 234 238 239 245 249 243 234 237 233 242 252 271 262 244 245 265 280 288 269 260 256 263 272 273 271 274 282 270 267 254 243 243 244 228 225 223 252 255 271 281 272 280 294 287 288 289 291
232 229 227 237 240 240 248 239 239 239 242 254 252 285 260 268 271 282 277 268 276 281 270 253 250 261 261 267 275 270 262 261 258 255 280 276 229 233 246 268 275 282 289 285 285 288 291 292 293
228 231 230 243 242 247 252 246 247 244 235 241 257 260 250 250 246 269 286 279 272 274 271 267 262 254 257 263 261 260 259 264 255 257 280 271 247 257 279 285 284 286 282 283 286 289 290 291 294